User: anonymous
Location: Durham
(35.9940°N, 78.8990°W)
Time: 18:10:14
(UTC-04:00)
Language:

Iridium 63 - Orbit

View from above orbital plane
View from above orbital plane
View from above satellite
View from above satellite

Ground track
Ground track

The orbit data is extracted from the following two-line orbital elements,

1 25286U 98021B   14264.16614880  .00000262  00000-0  86284-4 0  9839
2 25286 086.3945 282.1889 0002453 108.3049 294.2333 14.34234027861682
Epoch (UTC): 21 September 2014 03:59:15
Eccentricity: 0.0002453
inclination: 86.3945°
perigee height: 776 km
apogee height: 779 km
right ascension of ascending node: 282.1889°
argument of perigee: 108.3049°
revolutions per day: 14.34234027
mean anomaly at epoch: 294.2333°
orbit number at epoch: 86168

The dashed part of the orbit path shows where the satellite is in the earth's shadow,  

DLR